contact:dominique.lefevre@mio.osupytheas.fr, maurice.libes@osupytheas.fr, didier.mallarino@osupytheas.fr
Project:EMSO http://www.emso-fr.org/EMSO-France
Depth: 2436.0 m
Title:EMSO Ligure Ouest : Data MII capteur MICROCAT
DateTime_Computer,Latitude,Longitude,Temperature,Conductivity,Pressure,DateTime_Instrument
DateTime_Computer,Latitude,Longitude,degC,S m-1,dbar,DateTime_Instrument
2024-04-17T00:00:37Z,42.805,6.029,13.3035,4.60124,2470.82,2024-4-17T02:03:17Z
2024-04-17T00:03:40Z,42.805,6.029,13.3038,4.60125,2470.824,2024-4-17T02:06:20Z
2024-04-17T00:06:43Z,42.805,6.029,13.3034,4.60124,2470.787,2024-4-17T02:09:23Z
2024-04-17T00:09:46Z,42.805,6.029,13.3034,4.60127,2470.81,2024-4-17T02:12:26Z
2024-04-17T00:12:49Z,42.805,6.029,13.3039,4.60125,2470.787,2024-4-17T02:15:29Z
2024-04-17T00:15:52Z,42.805,6.029,13.3036,4.60125,2470.81,2024-4-17T02:18:32Z
2024-04-17T00:18:55Z,42.805,6.029,13.3035,4.60125,2470.81,2024-4-17T02:21:35Z
2024-04-17T00:21:58Z,42.805,6.029,13.3036,4.60124,2470.833,2024-4-17T02:24:38Z
2024-04-17T00:25:01Z,42.805,6.029,13.3036,4.60125,2470.81,2024-4-17T02:27:42Z
2024-04-17T00:28:04Z,42.805,6.029,13.3038,4.60125,2470.857,2024-4-17T02:30:45Z
2024-04-17T00:31:07Z,42.805,6.029,13.3036,4.60124,2470.824,2024-4-17T02:33:48Z
2024-04-17T00:34:10Z,42.805,6.029,13.3033,4.60125,2470.833,2024-4-17T02:36:51Z
2024-04-17T00:37:14Z,42.805,6.029,13.3039,4.60125,2470.81,2024-4-17T02:39:54Z
2024-04-17T00:40:17Z,42.805,6.029,13.3037,4.60124,2470.763,2024-4-17T02:42:57Z
2024-04-17T00:43:20Z,42.805,6.029,13.3039,4.60128,2470.81,2024-4-17T02:46:00Z
2024-04-17T00:46:23Z,42.805,6.029,13.3034,4.60125,2470.81,2024-4-17T02:49:03Z
2024-04-17T00:49:26Z,42.805,6.029,13.3039,4.60125,2470.847,2024-4-17T02:52:06Z
2024-04-17T00:52:29Z,42.805,6.029,13.3037,4.60125,2470.81,2024-4-17T02:55:09Z
2024-04-17T00:55:32Z,42.805,6.029,13.3040,4.60126,2470.847,2024-4-17T02:58:12Z
2024-04-17T00:58:35Z,42.805,6.029,13.3038,4.60129,2470.857,2024-4-17T03:01:15Z
2024-04-17T01:01:38Z,42.805,6.029,13.3039,4.60125,2470.857,2024-4-17T03:04:18Z
2024-04-17T01:04:41Z,42.805,6.029,13.3039,4.60127,2470.81,2024-4-17T03:07:22Z
2024-04-17T01:07:44Z,42.805,6.029,13.3039,4.60125,2470.847,2024-4-17T03:10:25Z
2024-04-17T01:10:47Z,42.805,6.029,13.3038,4.60125,2470.847,2024-4-17T03:13:28Z
2024-04-17T01:13:51Z,42.805,6.029,13.3039,4.60124,2470.857,2024-4-17T03:16:31Z
2024-04-17T01:16:54Z,42.805,6.029,13.3036,4.60124,2470.847,2024-4-17T03:19:34Z
2024-04-17T01:19:57Z,42.805,6.029,13.3041,4.60126,2470.833,2024-4-17T03:22:37Z
2024-04-17T01:23:00Z,42.805,6.029,13.3036,4.60123,2470.88,2024-4-17T03:25:40Z
2024-04-17T01:26:03Z,42.805,6.029,13.3042,4.60125,2470.833,2024-4-17T03:28:43Z
2024-04-17T01:29:06Z,42.805,6.029,13.3037,4.60125,2470.847,2024-4-17T03:31:46Z
2024-04-17T01:32:09Z,42.805,6.029,13.3042,4.60125,2470.81,2024-4-17T03:34:49Z
2024-04-17T01:35:12Z,42.805,6.029,13.3037,4.60125,2470.857,2024-4-17T03:37:52Z
2024-04-17T01:38:15Z,42.805,6.029,13.3034,4.60124,2470.833,2024-4-17T03:40:55Z
2024-04-17T01:41:18Z,42.805,6.029,13.3036,4.60125,2470.857,2024-4-17T03:43:59Z
2024-04-17T01:44:21Z,42.805,6.029,13.3038,4.60124,2470.847,2024-4-17T03:47:02Z
2024-04-17T01:47:24Z,42.805,6.029,13.3037,4.60125,2470.81,2024-4-17T03:50:05Z
2024-04-17T01:50:27Z,42.805,6.029,13.3034,4.60124,2470.824,2024-4-17T03:53:08Z
2024-04-17T01:53:31Z,42.805,6.029,13.3036,4.60125,2470.857,2024-4-17T03:56:11Z
2024-04-17T01:56:34Z,42.805,6.029,13.3038,4.60125,2470.857,2024-4-17T03:59:14Z
2024-04-17T01:59:37Z,42.805,6.029,13.3039,4.60126,2470.833,2024-4-17T04:02:17Z
2024-04-17T02:02:40Z,42.805,6.029,13.3040,4.60125,2470.81,2024-4-17T04:05:20Z
2024-04-17T02:05:43Z,42.805,6.029,13.3039,4.60125,2470.857,2024-4-17T04:08:23Z
2024-04-17T02:08:46Z,42.805,6.029,13.3038,4.60126,2470.88,2024-4-17T04:11:26Z
2024-04-17T02:11:49Z,42.805,6.029,13.3036,4.60125,2470.847,2024-4-17T04:14:29Z
2024-04-17T02:14:52Z,42.805,6.029,13.3036,4.60125,2470.857,2024-4-17T04:17:32Z
2024-04-17T02:17:55Z,42.805,6.029,13.3039,4.60126,2470.857,2024-4-17T04:20:35Z
2024-04-17T02:20:58Z,42.805,6.029,13.3034,4.60126,2470.871,2024-4-17T04:23:39Z
2024-04-17T02:24:01Z,42.805,6.029,13.3038,4.60125,2470.857,2024-4-17T04:26:42Z
2024-04-17T02:27:04Z,42.805,6.029,13.3039,4.60126,2470.871,2024-4-17T04:29:45Z
2024-04-17T02:30:08Z,42.805,6.029,13.3039,4.60125,2470.847,2024-4-17T04:32:48Z
2024-04-17T02:33:11Z,42.805,6.029,13.3037,4.60127,2470.833,2024-4-17T04:35:51Z
2024-04-17T02:36:14Z,42.805,6.029,13.3039,4.60125,2470.833,2024-4-17T04:38:54Z
2024-04-17T02:39:17Z,42.805,6.029,13.3039,4.60127,2470.833,2024-4-17T04:41:57Z
2024-04-17T02:42:20Z,42.805,6.029,13.3039,4.60127,2470.857,2024-4-17T04:45:00Z
2024-04-17T02:45:23Z,42.805,6.029,13.3040,4.60127,2470.857,2024-4-17T04:48:03Z
2024-04-17T02:48:26Z,42.805,6.029,13.3037,4.60127,2470.857,2024-4-17T04:51:06Z
2024-04-17T02:51:29Z,42.805,6.029,13.3041,4.60128,2470.833,2024-4-17T04:54:09Z
2024-04-17T02:54:32Z,42.805,6.029,13.3041,4.60125,2470.833,2024-4-17T04:57:12Z
2024-04-17T02:57:35Z,42.805,6.029,13.3040,4.60128,2470.871,2024-4-17T05:00:16Z
2024-04-17T03:00:38Z,42.805,6.029,13.3040,4.60127,2470.871,2024-4-17T05:03:19Z
2024-04-17T03:03:41Z,42.805,6.029,13.3039,4.60125,2470.833,2024-4-17T05:06:22Z
2024-04-17T03:06:44Z,42.805,6.029,13.3039,4.60127,2470.81,2024-4-17T05:09:25Z
2024-04-17T03:09:48Z,42.805,6.029,13.3037,4.60127,2470.88,2024-4-17T05:12:28Z
2024-04-17T03:12:51Z,42.805,6.029,13.3041,4.60126,2470.81,2024-4-17T05:15:31Z
2024-04-17T03:15:54Z,42.805,6.029,13.3038,4.60131,2470.847,2024-4-17T05:18:34Z
2024-04-17T03:18:57Z,42.805,6.029,13.3039,4.60127,2470.857,2024-4-17T05:21:37Z
2024-04-17T03:22:00Z,42.805,6.029,13.3040,4.60127,2470.843,2024-4-17T05:24:40Z
2024-04-17T03:25:03Z,42.805,6.029,13.3039,4.60127,2470.824,2024-4-17T05:27:43Z
2024-04-17T03:28:06Z,42.805,6.029,13.3043,4.60128,2470.833,2024-4-17T05:30:46Z
2024-04-17T03:31:09Z,42.805,6.029,13.3039,4.60128,2470.871,2024-4-17T05:33:49Z
2024-04-17T03:34:12Z,42.805,6.029,13.3040,4.60127,2470.833,2024-4-17T05:36:52Z
2024-04-17T03:37:15Z,42.805,6.029,13.3039,4.60133,2470.847,2024-4-17T05:39:56Z
2024-04-17T03:40:18Z,42.805,6.029,13.3039,4.60129,2470.857,2024-4-17T05:42:59Z
2024-04-17T03:43:21Z,42.805,6.029,13.3041,4.60129,2470.857,2024-4-17T05:46:02Z
2024-04-17T03:46:25Z,42.805,6.029,13.3041,4.60129,2470.857,2024-4-17T05:49:05Z
2024-04-17T03:49:28Z,42.805,6.029,13.3036,4.60128,2470.871,2024-4-17T05:52:08Z
2024-04-17T03:52:31Z,42.805,6.029,13.3037,4.60130,2470.857,2024-4-17T05:55:11Z
2024-04-17T03:55:34Z,42.805,6.029,13.3039,4.60127,2470.81,2024-4-17T05:58:14Z
2024-04-17T03:58:37Z,42.805,6.029,13.3043,4.60129,2470.847,2024-4-17T06:01:17Z
2024-04-17T04:01:40Z,42.805,6.029,13.3041,4.60129,2470.871,2024-4-17T06:04:20Z
2024-04-17T04:04:43Z,42.805,6.029,13.3036,4.60127,2470.833,2024-4-17T06:07:23Z
2024-04-17T04:07:46Z,42.805,6.029,13.3038,4.60129,2470.871,2024-4-17T06:10:26Z
2024-04-17T04:10:49Z,42.805,6.029,13.3038,4.60133,2470.857,2024-4-17T06:13:29Z
2024-04-17T04:13:52Z,42.805,6.029,13.3039,4.60133,2470.81,2024-4-17T06:16:33Z
2024-04-17T04:16:55Z,42.805,6.029,13.3040,4.60131,2470.833,2024-4-17T06:19:36Z
2024-04-17T04:19:58Z,42.805,6.029,13.3038,4.60131,2470.847,2024-4-17T06:22:39Z
2024-04-17T04:23:02Z,42.805,6.029,13.3036,4.60129,2470.847,2024-4-17T06:25:42Z
2024-04-17T04:26:05Z,42.805,6.029,13.3042,4.60128,2470.833,2024-4-17T06:28:45Z
2024-04-17T04:29:08Z,42.805,6.029,13.3039,4.60131,2470.847,2024-4-17T06:31:48Z
2024-04-17T04:32:11Z,42.805,6.029,13.3044,4.60130,2470.833,2024-4-17T06:34:51Z
2024-04-17T04:35:14Z,42.805,6.029,13.3039,4.60131,2470.871,2024-4-17T06:37:54Z
2024-04-17T04:38:17Z,42.805,6.029,13.3039,4.60128,2470.833,2024-4-17T06:40:57Z
2024-04-17T04:41:20Z,42.805,6.029,13.3039,4.60131,2470.833,2024-4-17T06:44:00Z
2024-04-17T04:44:23Z,42.805,6.029,13.3039,4.60129,2470.847,2024-4-17T06:47:03Z
2024-04-17T04:47:26Z,42.805,6.029,13.3042,4.60129,2470.81,2024-4-17T06:50:06Z
2024-04-17T04:50:29Z,42.805,6.029,13.3042,4.60129,2470.871,2024-4-17T06:53:10Z
2024-04-17T04:53:32Z,42.805,6.029,13.3037,4.60130,2470.871,2024-4-17T06:56:13Z
2024-04-17T04:56:35Z,42.805,6.029,13.3042,4.60129,2470.857,2024-4-17T06:59:16Z
2024-04-17T04:59:38Z,42.805,6.029,13.3041,4.60129,2470.857,2024-4-17T07:02:19Z
2024-04-17T05:02:42Z,42.805,6.029,13.3039,4.60128,2470.847,2024-4-17T07:05:22Z
2024-04-17T05:05:45Z,42.805,6.029,13.3039,4.60131,2470.857,2024-4-17T07:08:25Z
2024-04-17T05:08:48Z,42.805,6.029,13.3039,4.60129,2470.833,2024-4-17T07:11:28Z
2024-04-17T05:11:51Z,42.805,6.029,13.3039,4.60130,2470.847,2024-4-17T07:14:31Z
2024-04-17T05:14:54Z,42.805,6.029,13.3042,4.60132,2470.824,2024-4-17T07:17:34Z
2024-04-17T05:17:57Z,42.805,6.029,13.3039,4.60128,2470.857,2024-4-17T07:20:37Z
2024-04-17T05:21:00Z,42.805,6.029,13.3039,4.60129,2470.847,2024-4-17T07:23:40Z
2024-04-17T05:24:03Z,42.805,6.029,13.3039,4.60129,2470.833,2024-4-17T07:26:43Z
2024-04-17T05:27:06Z,42.805,6.029,13.3039,4.60128,2470.833,2024-4-17T07:29:46Z
2024-04-17T05:30:09Z,42.805,6.029,13.3043,4.60130,2470.81,2024-4-17T07:32:50Z
2024-04-17T05:33:12Z,42.805,6.029,13.3039,4.60129,2470.847,2024-4-17T07:35:53Z
2024-04-17T05:36:15Z,42.805,6.029,13.3040,4.60129,2470.833,2024-4-17T07:38:56Z
2024-04-17T05:39:19Z,42.805,6.029,13.3042,4.60131,2470.81,2024-4-17T07:41:59Z
2024-04-17T05:42:22Z,42.805,6.029,13.3037,4.60131,2470.81,2024-4-17T07:45:02Z
2024-04-17T05:45:25Z,42.805,6.029,13.3041,4.60131,2470.81,2024-4-17T07:48:05Z
2024-04-17T05:48:28Z,42.805,6.029,13.3042,4.60131,2470.857,2024-4-17T07:51:08Z
2024-04-17T05:51:31Z,42.805,6.029,13.3038,4.60129,2470.81,2024-4-17T07:54:11Z
2024-04-17T05:54:34Z,42.805,6.029,13.3042,4.60128,2470.824,2024-4-17T07:57:14Z
2024-04-17T05:57:37Z,42.805,6.029,13.3041,4.60130,2470.81,2024-4-17T08:00:17Z
2024-04-17T06:00:40Z,42.805,6.029,13.3041,4.60131,2470.81,2024-4-17T08:03:20Z
2024-04-17T06:03:43Z,42.805,6.029,13.3041,4.60129,2470.847,2024-4-17T08:06:23Z
2024-04-17T06:06:46Z,42.805,6.029,13.3040,4.60129,2470.787,2024-4-17T08:09:27Z
2024-04-17T06:09:49Z,42.805,6.029,13.3039,4.60129,2470.787,2024-4-17T08:12:30Z
2024-04-17T06:12:52Z,42.805,6.029,13.3037,4.60129,2470.833,2024-4-17T08:15:33Z
2024-04-17T06:15:55Z,42.805,6.029,13.3040,4.60128,2470.787,2024-4-17T08:18:36Z
2024-04-17T06:18:59Z,42.805,6.029,13.3040,4.60130,2470.833,2024-4-17T08:21:39Z
2024-04-17T06:22:02Z,42.805,6.029,13.3038,4.60128,2470.8,2024-4-17T08:24:42Z
2024-04-17T06:25:05Z,42.805,6.029,13.3041,4.60130,2470.8,2024-4-17T08:27:45Z
2024-04-17T06:28:08Z,42.805,6.029,13.3039,4.60129,2470.81,2024-4-17T08:30:48Z
2024-04-17T06:31:11Z,42.805,6.029,13.3039,4.60128,2470.787,2024-4-17T08:33:51Z
2024-04-17T06:34:14Z,42.805,6.029,13.3036,4.60129,2470.8,2024-4-17T08:36:54Z
2024-04-17T06:37:17Z,42.805,6.029,13.3041,4.60128,2470.81,2024-4-17T08:39:57Z
2024-04-17T06:40:20Z,42.805,6.029,13.3041,4.60128,2470.8,2024-4-17T08:43:00Z
2024-04-17T06:43:23Z,42.805,6.029,13.3043,4.60127,2470.777,2024-4-17T08:46:03Z
2024-04-17T06:46:26Z,42.805,6.029,13.3040,4.60129,2470.777,2024-4-17T08:49:07Z
2024-04-17T06:49:29Z,42.805,6.029,13.3038,4.60128,2470.787,2024-4-17T08:52:10Z
2024-04-17T06:52:32Z,42.805,6.029,13.3039,4.60128,2470.763,2024-4-17T08:55:13Z
2024-04-17T06:55:36Z,42.805,6.029,13.3036,4.60129,2470.75,2024-4-17T08:58:16Z
2024-04-17T06:58:39Z,42.805,6.029,13.3039,4.60129,2470.8,2024-4-17T09:01:19Z
2024-04-17T07:01:42Z,42.805,6.029,13.3040,4.60130,2470.8,2024-4-17T09:04:22Z
2024-04-17T07:04:45Z,42.805,6.029,13.3041,4.60129,2470.824,2024-4-17T09:07:25Z
2024-04-17T07:07:48Z,42.805,6.029,13.3041,4.60130,2470.8,2024-4-17T09:10:28Z
2024-04-17T07:10:51Z,42.805,6.029,13.3038,4.60128,2470.773,2024-4-17T09:13:31Z
2024-04-17T07:13:54Z,42.805,6.029,13.3043,4.60128,2470.787,2024-4-17T09:16:34Z
2024-04-17T07:16:57Z,42.805,6.029,13.3039,4.60127,2470.763,2024-4-17T09:19:37Z
2024-04-17T07:20:00Z,42.805,6.029,13.3040,4.60129,2470.763,2024-4-17T09:22:40Z
2024-04-17T07:23:03Z,42.805,6.029,13.3039,4.60127,2470.763,2024-4-17T09:25:44Z
2024-04-17T07:26:06Z,42.805,6.029,13.3041,4.60128,2470.74,2024-4-17T09:28:47Z
2024-04-17T07:29:09Z,42.805,6.029,13.3041,4.60129,2470.754,2024-4-17T09:31:50Z
2024-04-17T07:32:12Z,42.805,6.029,13.3039,4.60128,2470.777,2024-4-17T09:34:53Z
2024-04-17T07:35:16Z,42.805,6.029,13.3038,4.60127,2470.8,2024-4-17T09:37:56Z
2024-04-17T07:38:19Z,42.805,6.029,13.3037,4.60129,2470.777,2024-4-17T09:40:59Z
2024-04-17T07:41:22Z,42.805,6.029,13.3039,4.60127,2470.74,2024-4-17T09:44:02Z
2024-04-17T07:44:25Z,42.805,6.029,13.3041,4.60127,2470.74,2024-4-17T09:47:05Z
2024-04-17T07:47:28Z,42.805,6.029,13.3037,4.60128,2470.777,2024-4-17T09:50:08Z
2024-04-17T07:50:31Z,42.805,6.029,13.3040,4.60127,2470.777,2024-4-17T09:53:11Z
2024-04-17T07:53:34Z,42.805,6.029,13.3039,4.60127,2470.74,2024-4-17T09:56:14Z
2024-04-17T07:56:37Z,42.805,6.029,13.3041,4.60127,2470.763,2024-4-17T09:59:17Z
2024-04-17T07:59:40Z,42.805,6.029,13.3042,4.60130,2470.763,2024-4-17T10:02:20Z
2024-04-17T08:02:43Z,42.805,6.029,13.3041,4.60127,2470.74,2024-4-17T10:05:24Z
2024-04-17T08:05:46Z,42.805,6.029,13.3036,4.60127,2470.74,2024-4-17T10:08:27Z
2024-04-17T08:08:49Z,42.805,6.029,13.3039,4.60127,2470.754,2024-4-17T10:11:30Z
2024-04-17T08:11:53Z,42.805,6.029,13.3042,4.60128,2470.74,2024-4-17T10:14:33Z
2024-04-17T08:14:56Z,42.805,6.029,13.3041,4.60127,2470.73,2024-4-17T10:17:36Z
2024-04-17T08:17:59Z,42.805,6.029,13.3039,4.60128,2470.717,2024-4-17T10:20:39Z
2024-04-17T08:21:02Z,42.805,6.029,13.3040,4.60128,2470.754,2024-4-17T10:23:42Z
2024-04-17T08:24:05Z,42.805,6.029,13.3041,4.60127,2470.717,2024-4-17T10:26:45Z
2024-04-17T08:27:08Z,42.805,6.029,13.3039,4.60128,2470.74,2024-4-17T10:29:48Z
2024-04-17T08:30:11Z,42.805,6.029,13.3037,4.60128,2470.693,2024-4-17T10:32:51Z
2024-04-17T08:33:14Z,42.805,6.029,13.3043,4.60128,2470.74,2024-4-17T10:35:54Z
2024-04-17T08:36:17Z,42.805,6.029,13.3036,4.60127,2470.717,2024-4-17T10:38:58Z
2024-04-17T08:39:20Z,42.805,6.029,13.3039,4.60127,2470.74,2024-4-17T10:42:01Z
2024-04-17T08:42:23Z,42.805,6.029,13.3038,4.60127,2470.74,2024-4-17T10:45:04Z
2024-04-17T08:45:26Z,42.805,6.029,13.3038,4.60127,2470.693,2024-4-17T10:48:07Z
2024-04-17T08:48:30Z,42.805,6.029,13.3041,4.60127,2470.703,2024-4-17T10:51:10Z
2024-04-17T08:51:33Z,42.805,6.029,13.3037,4.60128,2470.73,2024-4-17T10:54:13Z
2024-04-17T08:54:36Z,42.805,6.029,13.3039,4.60128,2470.693,2024-4-17T10:57:16Z
2024-04-17T08:57:39Z,42.805,6.029,13.3040,4.60129,2470.717,2024-4-17T11:00:19Z
2024-04-17T09:00:42Z,42.805,6.029,13.3037,4.60127,2470.717,2024-4-17T11:03:22Z
2024-04-17T09:03:45Z,42.805,6.029,13.3036,4.60127,2470.754,2024-4-17T11:06:25Z
2024-04-17T09:06:48Z,42.805,6.029,13.3037,4.60127,2470.754,2024-4-17T11:09:28Z
2024-04-17T09:09:51Z,42.805,6.029,13.3042,4.60127,2470.73,2024-4-17T11:12:31Z
2024-04-17T09:12:54Z,42.805,6.029,13.3041,4.60126,2470.693,2024-4-17T11:15:35Z
2024-04-17T09:15:57Z,42.805,6.029,13.3039,4.60127,2470.717,2024-4-17T11:18:38Z
2024-04-17T09:19:00Z,42.805,6.029,13.3042,4.60127,2470.717,2024-4-17T11:21:41Z
2024-04-17T09:22:04Z,42.805,6.029,13.3041,4.60127,2470.74,2024-4-17T11:24:44Z
2024-04-17T09:25:07Z,42.805,6.029,13.3039,4.60127,2470.74,2024-4-17T11:27:47Z
2024-04-17T09:28:10Z,42.805,6.029,13.3041,4.60126,2470.717,2024-4-17T11:30:50Z
2024-04-17T09:31:13Z,42.805,6.029,13.3042,4.60127,2470.67,2024-4-17T11:33:53Z
2024-04-17T09:34:16Z,42.805,6.029,13.3037,4.60129,2470.707,2024-4-17T11:36:56Z
2024-04-17T09:37:19Z,42.805,6.029,13.3038,4.60126,2470.717,2024-4-17T11:39:59Z
2024-04-17T09:40:22Z,42.805,6.029,13.3036,4.60129,2470.693,2024-4-17T11:43:02Z
2024-04-17T09:43:25Z,42.805,6.029,13.3037,4.60126,2470.74,2024-4-17T11:46:05Z
2024-04-17T09:46:28Z,42.805,6.029,13.3036,4.60126,2470.73,2024-4-17T11:49:09Z
2024-04-17T09:49:31Z,42.805,6.029,13.3040,4.60127,2470.707,2024-4-17T11:52:12Z
2024-04-17T09:52:34Z,42.805,6.029,13.3038,4.60126,2470.73,2024-4-17T11:55:15Z
2024-04-17T09:55:37Z,42.805,6.029,13.3039,4.60125,2470.67,2024-4-17T11:58:18Z
2024-04-17T09:58:41Z,42.805,6.029,13.3040,4.60127,2470.693,2024-4-17T12:01:21Z
2024-04-17T10:01:44Z,42.805,6.029,13.3039,4.60126,2470.693,2024-4-17T12:04:24Z
2024-04-17T10:04:47Z,42.805,6.029,13.3042,4.60128,2470.693,2024-4-17T12:07:27Z
2024-04-17T10:07:50Z,42.805,6.029,13.3038,4.60127,2470.707,2024-4-17T12:10:30Z
2024-04-17T10:10:53Z,42.805,6.029,13.3043,4.60126,2470.707,2024-4-17T12:13:33Z
2024-04-17T10:13:56Z,42.805,6.029,13.3039,4.60126,2470.73,2024-4-17T12:16:36Z
2024-04-17T10:16:59Z,42.805,6.029,13.3036,4.60127,2470.67,2024-4-17T12:19:39Z
2024-04-17T10:20:02Z,42.805,6.029,13.3039,4.60127,2470.707,2024-4-17T12:22:42Z
2024-04-17T10:23:05Z,42.805,6.029,13.3039,4.60127,2470.707,2024-4-17T12:25:46Z
2024-04-17T10:26:08Z,42.805,6.029,13.3039,4.60127,2470.707,2024-4-17T12:28:49Z
2024-04-17T10:29:11Z,42.805,6.029,13.3037,4.60125,2470.693,2024-4-17T12:31:52Z
2024-04-17T10:32:15Z,42.805,6.029,13.3041,4.60127,2470.693,2024-4-17T12:34:55Z
2024-04-17T10:35:18Z,42.805,6.029,13.3039,4.60127,2470.684,2024-4-17T12:37:58Z
2024-04-17T10:38:21Z,42.805,6.029,13.3036,4.60127,2470.67,2024-4-17T12:41:01Z
2024-04-17T10:41:24Z,42.805,6.029,13.3037,4.60127,2470.67,2024-4-17T12:44:04Z
2024-04-17T10:44:27Z,42.805,6.029,13.3036,4.60127,2470.707,2024-4-17T12:47:07Z
2024-04-17T10:47:30Z,42.805,6.029,13.3041,4.60126,2470.73,2024-4-17T12:50:10Z
2024-04-17T10:50:33Z,42.805,6.029,13.3041,4.60127,2470.67,2024-4-17T12:53:13Z
2024-04-17T10:53:36Z,42.805,6.029,13.3037,4.60126,2470.661,2024-4-17T12:56:16Z
2024-04-17T10:56:39Z,42.805,6.029,13.3036,4.60126,2470.693,2024-4-17T12:59:19Z
2024-04-17T10:59:42Z,42.805,6.029,13.3041,4.60128,2470.67,2024-4-17T13:02:23Z
2024-04-17T11:02:45Z,42.805,6.029,13.3041,4.60128,2470.693,2024-4-17T13:05:26Z
2024-04-17T11:05:48Z,42.805,6.029,13.3039,4.60127,2470.684,2024-4-17T13:08:29Z
2024-04-17T11:08:52Z,42.805,6.029,13.3036,4.60128,2470.707,2024-4-17T13:11:32Z
2024-04-17T11:11:55Z,42.805,6.029,13.3037,4.60127,2470.693,2024-4-17T13:14:35Z
2024-04-17T11:14:58Z,42.805,6.029,13.3036,4.60127,2470.646,2024-4-17T13:17:38Z
2024-04-17T11:18:01Z,42.805,6.029,13.3042,4.60127,2470.661,2024-4-17T13:20:41Z
2024-04-17T11:21:04Z,42.805,6.029,13.3041,4.60127,2470.67,2024-4-17T13:23:44Z
2024-04-17T11:24:07Z,42.805,6.029,13.3039,4.60126,2470.67,2024-4-17T13:26:47Z
2024-04-17T11:27:10Z,42.805,6.029,13.3036,4.60127,2470.684,2024-4-17T13:29:50Z
2024-04-17T11:30:13Z,42.805,6.029,13.3041,4.60126,2470.67,2024-4-17T13:32:53Z
2024-04-17T11:33:16Z,42.805,6.029,13.3040,4.60126,2470.707,2024-4-17T13:35:57Z
2024-04-17T11:36:19Z,42.805,6.029,13.3039,4.60126,2470.693,2024-4-17T13:39:00Z
2024-04-17T11:39:22Z,42.805,6.029,13.3039,4.60126,2470.707,2024-4-17T13:42:03Z
2024-04-17T11:42:25Z,42.805,6.029,13.3039,4.60127,2470.684,2024-4-17T13:45:06Z
2024-04-17T11:45:29Z,42.805,6.029,13.3037,4.60127,2470.684,2024-4-17T13:48:09Z
2024-04-17T11:48:32Z,42.805,6.029,13.3040,4.60127,2470.67,2024-4-17T13:51:12Z
2024-04-17T11:51:35Z,42.805,6.029,13.3038,4.60126,2470.67,2024-4-17T13:54:15Z
2024-04-17T11:54:38Z,42.805,6.029,13.3039,4.60128,2470.693,2024-4-17T13:57:18Z
2024-04-17T11:57:41Z,42.805,6.029,13.3040,4.60127,2470.707,2024-4-17T14:00:21Z
2024-04-17T12:00:44Z,42.805,6.029,13.3043,4.60126,2470.67,2024-4-17T14:03:24Z
2024-04-17T12:03:47Z,42.805,6.029,13.3041,4.60127,2470.679,2024-4-17T14:06:27Z
2024-04-17T12:06:50Z,42.805,6.029,13.3038,4.60127,2470.646,2024-4-17T14:09:30Z
2024-04-17T12:09:53Z,42.805,6.029,13.3041,4.60126,2470.693,2024-4-17T14:12:34Z
2024-04-17T12:12:56Z,42.805,6.029,13.3043,4.60127,2470.707,2024-4-17T14:15:37Z
2024-04-17T12:15:59Z,42.805,6.029,13.3039,4.60127,2470.684,2024-4-17T14:18:40Z
2024-04-17T12:19:02Z,42.805,6.029,13.3041,4.60126,2470.693,2024-4-17T14:21:43Z
2024-04-17T12:22:06Z,42.805,6.029,13.3041,4.60127,2470.707,2024-4-17T14:24:46Z
2024-04-17T12:25:09Z,42.805,6.029,13.3043,4.60127,2470.707,2024-4-17T14:27:49Z
2024-04-17T12:28:12Z,42.805,6.029,13.3041,4.60129,2470.684,2024-4-17T14:30:52Z
2024-04-17T12:31:15Z,42.805,6.029,13.3040,4.60126,2470.707,2024-4-17T14:33:55Z
2024-04-17T12:34:18Z,42.805,6.029,13.3044,4.60127,2470.717,2024-4-17T14:36:58Z
2024-04-17T12:37:21Z,42.805,6.029,13.3042,4.60128,2470.707,2024-4-17T14:40:01Z
2024-04-17T12:40:24Z,42.805,6.029,13.3039,4.60127,2470.707,2024-4-17T14:43:04Z
2024-04-17T12:43:27Z,42.805,6.029,13.3040,4.60127,2470.684,2024-4-17T14:46:07Z
2024-04-17T12:46:30Z,42.805,6.029,13.3042,4.60129,2470.707,2024-4-17T14:49:11Z
2024-04-17T12:49:33Z,42.805,6.029,13.3043,4.60129,2470.693,2024-4-17T14:52:14Z
2024-04-17T12:52:36Z,42.805,6.029,13.3041,4.60129,2470.693,2024-4-17T14:55:17Z
2024-04-17T12:55:40Z,42.805,6.029,13.3041,4.60128,2470.67,2024-4-17T14:58:20Z
2024-04-17T12:58:43Z,42.805,6.029,13.3040,4.60126,2470.717,2024-4-17T15:01:23Z
2024-04-17T13:01:46Z,42.805,6.029,13.3036,4.60129,2470.693,2024-4-17T15:04:26Z
2024-04-17T13:04:49Z,42.805,6.029,13.3041,4.60127,2470.717,2024-4-17T15:07:29Z
2024-04-17T13:07:52Z,42.805,6.029,13.3043,4.60128,2470.707,2024-4-17T15:10:32Z
2024-04-17T13:10:55Z,42.805,6.029,13.3043,4.60127,2470.67,2024-4-17T15:13:35Z
2024-04-17T13:13:58Z,42.805,6.029,13.3038,4.60126,2470.693,2024-4-17T15:16:38Z
2024-04-17T13:17:01Z,42.805,6.029,13.3038,4.60126,2470.717,2024-4-17T15:19:41Z
2024-04-17T13:20:04Z,42.805,6.029,13.3038,4.60128,2470.707,2024-4-17T15:22:44Z
2024-04-17T13:23:07Z,42.805,6.029,13.3036,4.60127,2470.707,2024-4-17T15:25:48Z
2024-04-17T13:26:10Z,42.805,6.029,13.3039,4.60129,2470.717,2024-4-17T15:28:51Z
2024-04-17T13:29:13Z,42.805,6.029,13.3039,4.60127,2470.73,2024-4-17T15:31:54Z
2024-04-17T13:32:17Z,42.805,6.029,13.3040,4.60129,2470.717,2024-4-17T15:34:57Z
2024-04-17T13:35:20Z,42.805,6.029,13.3038,4.60129,2470.693,2024-4-17T15:38:00Z
2024-04-17T13:38:23Z,42.805,6.029,13.3038,4.60127,2470.693,2024-4-17T15:41:03Z
2024-04-17T13:41:26Z,42.805,6.029,13.3039,4.60126,2470.693,2024-4-17T15:44:06Z
2024-04-17T13:44:29Z,42.805,6.029,13.3039,4.60127,2470.703,2024-4-17T15:47:09Z
2024-04-17T13:47:32Z,42.805,6.029,13.3036,4.60127,2470.707,2024-4-17T15:50:12Z
2024-04-17T13:50:35Z,42.805,6.029,13.3039,4.60129,2470.73,2024-4-17T15:53:15Z
2024-04-17T13:53:38Z,42.805,6.029,13.3039,4.60129,2470.74,2024-4-17T15:56:18Z
2024-04-17T13:56:41Z,42.805,6.029,13.3041,4.60127,2470.693,2024-4-17T15:59:22Z
2024-04-17T13:59:44Z,42.805,6.029,13.3037,4.60127,2470.73,2024-4-17T16:02:25Z
2024-04-17T14:02:47Z,42.805,6.029,13.3040,4.60129,2470.693,2024-4-17T16:05:28Z
2024-04-17T14:05:50Z,42.805,6.029,13.3038,4.60129,2470.717,2024-4-17T16:08:31Z
2024-04-17T14:08:54Z,42.805,6.029,13.3041,4.60127,2470.717,2024-4-17T16:11:34Z
2024-04-17T14:11:57Z,42.805,6.029,13.3041,4.60127,2470.693,2024-4-17T16:14:37Z
2024-04-17T14:15:00Z,42.805,6.029,13.3042,4.60128,2470.73,2024-4-17T16:17:40Z
2024-04-17T14:18:03Z,42.805,6.029,13.3041,4.60129,2470.684,2024-4-17T16:20:43Z
2024-04-17T14:21:06Z,42.805,6.029,13.3039,4.60127,2470.717,2024-4-17T16:23:46Z
2024-04-17T14:24:09Z,42.805,6.029,13.3043,4.60127,2470.693,2024-4-17T16:26:49Z
2024-04-17T14:27:12Z,42.805,6.029,13.3037,4.60127,2470.717,2024-4-17T16:29:52Z
2024-04-17T14:30:15Z,42.805,6.029,13.3037,4.60126,2470.707,2024-4-17T16:32:56Z
2024-04-17T14:33:18Z,42.805,6.029,13.3041,4.60127,2470.693,2024-4-17T16:35:59Z
2024-04-17T14:36:21Z,42.805,6.029,13.3040,4.60127,2470.73,2024-4-17T16:39:02Z
2024-04-17T14:39:24Z,42.805,6.029,13.3042,4.60129,2470.73,2024-4-17T16:42:05Z
2024-04-17T14:42:28Z,42.805,6.029,13.3043,4.60126,2470.707,2024-4-17T16:45:08Z
2024-04-17T14:45:31Z,42.805,6.029,13.3036,4.60128,2470.717,2024-4-17T16:48:11Z
2024-04-17T14:48:34Z,42.805,6.029,13.3041,4.60126,2470.73,2024-4-17T16:51:14Z
2024-04-17T14:51:37Z,42.805,6.029,13.3041,4.60128,2470.74,2024-4-17T16:54:17Z
2024-04-17T14:54:40Z,42.805,6.029,13.3043,4.60128,2470.73,2024-4-17T16:57:20Z
2024-04-17T14:57:43Z,42.805,6.029,13.3038,4.60127,2470.717,2024-4-17T17:00:23Z
2024-04-17T15:00:46Z,42.805,6.029,13.3040,4.60126,2470.693,2024-4-17T17:03:26Z
2024-04-17T15:03:49Z,42.805,6.029,13.3043,4.60126,2470.693,2024-4-17T17:06:29Z
2024-04-17T15:06:52Z,42.805,6.029,13.3040,4.60128,2470.717,2024-4-17T17:09:33Z
2024-04-17T15:09:55Z,42.805,6.029,13.3039,4.60128,2470.73,2024-4-17T17:12:36Z
2024-04-17T15:12:58Z,42.805,6.029,13.3039,4.60125,2470.73,2024-4-17T17:15:39Z